Regional Weather Roundup
Issued by NWS

Home | Current Version | Previous Version | Graphics & Text | Print | Product List | Glossary Off
Versions: 1 2 3 4 5 6 7 8 9 10 11 12 13 14 15 16 17 18 19 20 21 22 23 24 25 26 27 28 29 30 31 32 33 34 35 36 37 38 39 40 41 42 43 44 45 46 47 48 49 50

000
ASUS43 KMKX 310900
RWRWI

WISCONSIN REGIONAL WEATHER ROUNDUP
NATIONAL WEATHER SERVICE MILWAUKEE/SULLIVAN WI
400 AM CDT FRI OCT 31 2014

NOTE: "FAIR" INDICATES FEW OR NO CLOUDS BELOW 12,000 FEET WITH NO
SIGNIFICANT WEATHER AND/OR OBSTRUCTIONS TO VISIBILITY.

WIZ001-002-006>008-014>016-023>028-311000-
NORTHWEST WISCONSIN

CITY           SKY/WX    TMP DP  RH WIND       PRES   REMARKS
SUPERIOR ARPT  MOCLDY    29  18  63 N8        30.48R WCI  21
ASHLAND        FLURRIES  30  22  72 N22G28    30.41R WCI  17
HAYWARD        LGT SNOW  28  22  78 N9G20     30.38R WCI  19
SIREN          MOCLDY    30  17  59 N15       30.43R WCI  19
CUMBERLAND     MOCLDY    30  18  59 N14G22    30.37R WCI  20
RICE LAKE      CLOUDY    31  20  64 N10G21    30.38R WCI  22
CHETEK         CLOUDY    31  21  67 NW14G23   30.36R WCI  21
LADYSMITH      PTCLDY    30  21  69 N20G30    30.33R WCI  18
EAU CLAIRE     NOT AVBL
MENOMONIE      PTCLDY    31  19  58 NW16G28   30.37R WCI  20
NEW RICHMOND   CLEAR     28  17  65 N14G22    30.42R WCI  16
OSCEOLA        CLEAR     29  18  62 N10G20    30.46R WCI  20
$$

WIZ003>005-009-010-017-018-311000-
NORTH CENTRAL WISCONSIN

CITY           SKY/WX    TMP DP  RH WIND       PRES   REMARKS
MANITOWISH WTR LGT SNOW  27  26  95 N14G23    30.25R VSB 1   WCI  16
ARBOR VITAE    FLURRIES  32  28  87 N15G24    30.23R WCI  21
WOODRUFF       FLURRIES  32  28  87 N15G24    30.23R WCI  21
RHINELANDER    PTCLDY    28  23  81 N10G22    30.21R WCI  19
EAGLE RIVER    FLURRIES  28  24  84 N15G23    30.20R WCI  16
LAND O LAKES   FLURRIES  29  25  87 N14G22    30.22R WCI  18
PHILLIPS       CLOUDY    28  24  82 N9G18     30.27R WCI  20
TOMAHAWK       LGT SNOW  29  25  85 N10G18    30.23R WCI  20
MEDFORD        CLOUDY    29  23  76 N17G37    30.22R WCI  18
MERRILL        MOCLDY    30  25  82 N17G28    30.19R WCI  18
$$

WIZ029-030-035-036-043>047-311000-
CENTRAL WISCONSIN

CITY           SKY/WX    TMP DP  RH WIND       PRES   REMARKS
WAUSAU         MOCLDY    31  25  78 N15G30    30.18R WCI  20
MOSINEE        CLOUDY    32  30  93 N20G25    30.18R WCI  20
MARSHFIELD     MOCLDY    32  23  69 N21G32    30.21R WCI  20
STEVENS POINT  CLOUDY    31  27  88 N16G23    30.16R WCI  19
WAUPACA        LGT SNOW  35  33  92 NW13      30.12R WCI  26
WAUTOMA        LGT SNOW  34  30  86 N13G21    30.14R FOG     WCI  25
WISC RAPIDS    MOCLDY    33  26  75 N18G28    30.20R WCI  22
CAMP DOUGLAS   MOCLDY    32  27  80 NW17G28   30.20S WCI  21
$$

WIZ011>013-019>022-031-037>040-048>050-311000-
NORTHEAST WISCONSIN

CITY           SKY/WX    TMP DP  RH WIND       PRES   REMARKS
ANTIGO         CLOUDY    30  26  84 N24G31    30.14R WCI  16
SHAWANO        CLOUDY    38  28  65 N21G30    30.11R WCI  28
OCONTO         CLOUDY    37  29  74 N16G25    30.07R WCI  27
STURGEON BAY   CLOUDY    36  30  80 N28G40    30.04R WCI  23
GREEN BAY      CLOUDY    37  30  75 N17G30    30.08R WCI  27
MANITOWOC      NOT AVBL
APPLETON       LGT RAIN  34  32  93 NW16      30.08R WCI  23
CLINTONVILLE   CLOUDY    36  30  80 N16G25    30.11R WCI  26
OSHKOSH        CLOUDY    36  32  85 NW16G23   30.07R WCI  26
$$

WIZ032>034-041-042-053>061-311000-
SOUTHWEST WISCONSIN

CITY           SKY/WX    TMP DP  RH WIND       PRES   REMARKS
LA CROSSE      CLOUDY    34  21  59 N21       30.30R WCI  22
SPARTA         CLOUDY    32  22  65 NW14G20   30.26R WCI  22
VIROQUA        CLOUDY    31  21  66 N16G28    30.23R WCI  20
BOSCOBEL       CLOUDY    35  19  52 N14G28    30.25R WCI  26
PRAIRIE DU CHI MOCLDY    35  15  44 NW12G25   30.26R WCI  27
PLATTEVILLE    PTCLDY    35  17  47 NW29G35   30.18S WCI  22
$$

WIZ056-057-062-063-064-067-068-311000-
SOUTH CENTRAL WISCONSIN

CITY           SKY/WX    TMP DP  RH WIND       PRES   REMARKS
REEDSBURG      CLOUDY    32  24  73 NW17G26   30.17S WCI  21
BARABOO/DELLS  FLURRIES  33  25  72 NW15G23   30.16R WCI  22
LONE ROCK      NOT AVBL
MINERAL POINT  CLEAR     34  18  51 NW20G33   30.17R WCI  22
MADISON        CLOUDY    36  24  62 NW16G26   30.13S WCI  26
MIDDLETON      CLOUDY    37  23  58 NW23G31   30.13S WCI  25
WATERTOWN      CLOUDY    36  28  74 NW18G24   30.08R WCI  25
MONROE         CLOUDY    36  27  69 NW18G25   30.12R WCI  25
JANESVILLE     DRIZZLE   39  30  70 N23       30.08S WCI  29
$$

WIZ051-052-058>065-066-070>072-311000-
SOUTHEAST WISCONSIN

CITY           SKY/WX    TMP DP  RH WIND       PRES   REMARKS
MILWAUKEE      CLOUDY    39  31  72 NW20G29   30.04R WCI  29
WAUKESHA       CLOUDY    36  32  87 NW16      30.06R WCI  26
MILWAUKEE/TIMM DRIZZLE   36  32  87 NW21      30.05R WCI  24
RACINE         CLOUDY    41  31  67 NW14      30.04R
BURLINGTON     CLOUDY    38  30  71 N16G26    30.05S WCI  30
KENOSHA        CLOUDY    41  30  65 NW15G25   30.03R
FOND DU LAC    FLURRIES  35  30  82 NW16G23   30.07R WCI  25
SHEBOYGAN      CLOUDY    37  31  78 NW12G24   30.04R WCI  29
WEST BEND      DRIZZLE   36  30  80 NW14G21   30.04S WCI  27
JUNEAU         CLOUDY    35  29  78 NW13G25   30.09R WCI  26
$$

LSZ147-162-311000-
LAKE SUPERIOR

STATION/POSITION TIME  TEMP    WIND        PRES    WAVE
                       AIR SEA DIR/SP/G            HT/PER
                 (UTC) (F)     (DEG/KT/KT) (MB)    (FT/S)
W MID LAKE BUOY  0750   34 44  360/ 27/ 33 1027.5R   8/ 7
DEVILS ISLAND    0800   32     360/ 27/ 32 1030.4R
PORT WING        0800   34     360/ 23/ 31 1030.5R
SAXON HARBOR     0800   36      10/ 24/ 27 1027.8R
$$

LMZ867-665-643>646-311000-
LAKE MICHIGAN

STATION/POSITION TIME  TEMP    WIND        PRES    WAVE
                       AIR SEA DIR/SP/G            HT/PER
                 (UTC) (F)     (DEG/KT/KT) (MB)    (FT/S)
CHAMBERS ISLAND  0800   39     330/ 29/ 35 1016.3R
N MID LAKE BUOY  0750   40 51  340/ 23/ 27 1013.9R   4/ 4
NORTHPORT PIER   0800   38     340/ 38/ 44 1015.6R
KEWAUNEE LAKESHO 0800   38     320/  7/ 15 1015.5R
SHEBOYGAN LAKESH 0800   40 50  320/ 18/ 22 1017.3R
PORT WASHINGTON  0800   42     320/ 11/ 21 1017.6R
ATWATER BUOY     0800   44     290/ 21/ 25 1017.5R
MILWAUKEE LAKESH 0800   43     310/ 13/ 17   N/A
S MID LAKE BUOY  0750   45 53  320/ 21/ 27 1015.6R   5/ 5
KENOSHA   LAKESH 0800   44     320/ 17/ 21 1016.3S
$$

TC  - TEMPERATURE IN CELSIUS
VSB - VISIBILITY IN STATUTE MILES
WCI - WIND CHILL INDEX
HX  - HEAT INDEX




USA.gov is the U.S. government's official web portal to all federal, state and local government web resources and services.